• In Romania
  • List of Countries
  • For 7 days
  • Water Temperature
  • Satellite Maps
  • Weather Map
  • Weather Widgets
  • user-avatar
    Login

    Hourly Weather Passo Fundo

    Today, 15 October, Monday

    Time Temperature Precipitation Wind Pressure Humidity
    00:00 +13°C° 0 mm 2 mps 705 mmHg 91%
    01:00 +12°C° 0 mm 2 mps 704 mmHg 92%
    02:00 +12°C° 0 mm 2 mps 704 mmHg 94%
    03:00 +10°C° 0 mm 2 mps 704 mmHg 95%
    04:00 +10°C° 0 mm 2 mps 704 mmHg 96%
    05:00 +10°C° 0 mm 2 mps 704 mmHg 96%
    06:00 +10°C° 0 mm 3 mps 704 mmHg 96%
    07:00 +12°C° 0 mm 3 mps 704 mmHg 91%
    08:00 +16°C° 0 mm 3 mps 705 mmHg 87%
    09:00 +18°C° 0 mm 3 mps 705 mmHg 82%
    10:00 +19°C° 0 mm 3 mps 705 mmHg 78%
    11:00 +21°C° 0 mm 3 mps 705 mmHg 74%
    12:00 +22°C° 0 mm 3 mps 704 mmHg 70%
    13:00 +24°C° 0 mm 3 mps 704 mmHg 67%
    14:00 +25°C° 0 mm 2 mps 704 mmHg 65%
    15:00 +25°C° 0 mm 2 mps 703 mmHg 62%
    16:00 +25°C° 0 mm 2 mps 703 mmHg 67%
    17:00 +24°C° 0 mm 2 mps 703 mmHg 71%
    18:00 +23°C° 0 mm 1 mps 703 mmHg 75%
    19:00 +20°C° 0 mm 2 mps 703 mmHg 79%
    20:00 +18°C° 0 mm 2 mps 703 mmHg 82%
    21:00 +17°C° 0 mm 3 mps 703 mmHg 85%
    22:00 +16°C° 0 mm 3 mps 704 mmHg 88%
    23:00 +16°C° 0 mm 3 mps 704 mmHg 91%

    Tomorrow, 16 October, Tuesday

    Time Temperature Precipitation Wind Pressure Humidity
    00:00 +14°C° 0 mm 3 mps 704 mmHg 93%
    01:00 +14°C° 0 mm 3 mps 703 mmHg 93%
    02:00 +14°C° 0 mm 4 mps 703 mmHg 93%
    03:00 +14°C° 0 mm 4 mps 703 mmHg 93%
    04:00 +14°C° 0 mm 4 mps 703 mmHg 93%
    05:00 +14°C° 0 mm 4 mps 703 mmHg 93%
    06:00 +13°C° 0 mm 4 mps 703 mmHg 93%
    07:00 +15°C° 0 mm 4 mps 704 mmHg 88%
    08:00 +18°C° 0 mm 4 mps 704 mmHg 83%
    09:00 +20°C° 0 mm 4 mps 705 mmHg 78%
    10:00 +22°C° 0 mm 3 mps 705 mmHg 74%
    11:00 +25°C° 0 mm 3 mps 705 mmHg 69%
    12:00 +26°C° 0 mm 2 mps 705 mmHg 65%
    13:00 +27°C° 0.1 mm 2 mps 704 mmHg 63%
    14:00 +27°C° 0.1 mm 2 mps 703 mmHg 61%
    15:00 +28°C° 0.1 mm 2 mps 703 mmHg 59%
    16:00 +27°C° 0.1 mm 2 mps 703 mmHg 65%
    17:00 +26°C° 0.1 mm 2 mps 702 mmHg 71%
    18:00 +25°C° 0.1 mm 2 mps 702 mmHg 77%
    19:00 +23°C° 0 mm 2 mps 702 mmHg 80%
    20:00 +21°C° 0 mm 3 mps 703 mmHg 84%
    21:00 +19°C° 0 mm 4 mps 703 mmHg 87%
    22:00 +19°C° 0 mm 4 mps 703 mmHg 86%
    23:00 +19°C° 0 mm 5 mps 704 mmHg 86%

    Day after tomorrow, 17 October, Wednesday

    Time Temperature Precipitation Wind Pressure Humidity
    00:00 +17°C° 0 mm 5 mps 704 mmHg 86%
    01:00 +17°C° 0 mm 5 mps 703 mmHg 86%
    02:00 +17°C° 0 mm 5 mps 703 mmHg 86%
    03:00 +17°C° 0 mm 5 mps 703 mmHg 86%
    04:00 +17°C° 0 mm 5 mps 703 mmHg 87%
    05:00 +16°C° 0 mm 5 mps 703 mmHg 88%
    06:00 +17°C° 0 mm 4 mps 703 mmHg 89%
    07:00 +19°C° 0 mm 4 mps 704 mmHg 86%
    08:00 +20°C° 0 mm 4 mps 704 mmHg 82%
    09:00 +22°C° 0 mm 4 mps 705 mmHg 79%
    10:00 +23°C° 0 mm 4 mps 705 mmHg 78%
    11:00 +25°C° 0 mm 4 mps 705 mmHg 77%
    12:00 +26°C° 0 mm 4 mps 705 mmHg 76%
    13:00 +26°C° 0 mm 4 mps 704 mmHg 76%
    14:00 +26°C° 0 mm 4 mps 704 mmHg 77%
    15:00 +26°C° 0 mm 3 mps 703 mmHg 77%
    16:00 +26°C° 0.3 mm 3 mps 703 mmHg 81%
    17:00 +25°C° 0.3 mm 3 mps 703 mmHg 84%
    18:00 +25°C° 0.3 mm 3 mps 703 mmHg 87%
    19:00 +24°C° 0.2 mm 3 mps 703 mmHg 90%
    20:00 +22°C° 0.2 mm 3 mps 704 mmHg 92%
    21:00 +21°C° 0.2 mm 3 mps 704 mmHg 95%
    22:00 +21°C° 0 mm 3 mps 704 mmHg 95%
    23:00 +20°C° 0 mm 3 mps 704 mmHg 95%

    18 October, Thursday

    Time Temperature Precipitation Wind Pressure Humidity
    00:00 +20°C° 0 mm 3 mps 704 mmHg 96%
    01:00 +20°C° 0 mm 3 mps 703 mmHg 96%
    02:00 +19°C° 0 mm 3 mps 703 mmHg 95%
    03:00 +19°C° 0 mm 3 mps 702 mmHg 95%
    04:00 +19°C° 0 mm 3 mps 703 mmHg 95%
    05:00 +19°C° 0 mm 3 mps 703 mmHg 95%
    06:00 +19°C° 0 mm 2 mps 704 mmHg 94%
    07:00 +20°C° 0 mm 3 mps 704 mmHg 90%
    08:00 +22°C° 0 mm 3 mps 704 mmHg 85%
    09:00 +25°C° 0 mm 3 mps 704 mmHg 81%
    10:00 +25°C° 0 mm 3 mps 704 mmHg 79%
    11:00 +26°C° 0 mm 3 mps 705 mmHg 77%
    12:00 +27°C° 0 mm 2 mps 705 mmHg 75%
    13:00 +27°C° 0.1 mm 2 mps 704 mmHg 74%
    14:00 +27°C° 0.1 mm 2 mps 704 mmHg 73%
    15:00 +27°C° 0.1 mm 2 mps 703 mmHg 72%
    16:00 +26°C° 0.5 mm 2 mps 703 mmHg 77%
    17:00 +26°C° 0.5 mm 1 mps 704 mmHg 81%
    18:00 +23°C° 0.5 mm 0 mps 704 mmHg 86%
    19:00 +22°C° 0 mm 0 mps 704 mmHg 89%
    20:00 +23°C° 0 mm 1 mps 704 mmHg 91%
    21:00 +22°C° 0 mm 1 mps 704 mmHg 93%
    22:00 +21°C° 0 mm 1 mps 704 mmHg 94%
    23:00 +21°C° 0 mm 1 mps 704 mmHg 94%

    19 October, Friday

    Time Temperature Precipitation Wind Pressure Humidity
    00:00 +21°C° 0 mm 1 mps 704 mmHg 95%
    01:00 +21°C° 0 mm 1 mps 704 mmHg 95%
    02:00 +20°C° 0 mm 1 mps 703 mmHg 95%
    03:00 +20°C° 0 mm 1 mps 703 mmHg 95%
    04:00 +20°C° 0 mm 1 mps 703 mmHg 96%
    05:00 +20°C° 0 mm 1 mps 704 mmHg 96%
    06:00 +19°C° 0 mm 2 mps 704 mmHg 96%
    07:00 +21°C° 0 mm 2 mps 704 mmHg 92%
    08:00 +23°C° 0 mm 2 mps 705 mmHg 88%
    09:00 +25°C° 0 mm 2 mps 705 mmHg 84%
    10:00 +26°C° 0 mm 3 mps 705 mmHg 78%
    11:00 +27°C° 0 mm 3 mps 705 mmHg 73%
    12:00 +29°C° 0 mm 3 mps 705 mmHg 67%
    13:00 +29°C° 0.7 mm 3 mps 705 mmHg 68%
    14:00 +28°C° 0.7 mm 2 mps 704 mmHg 69%
    15:00 +28°C° 0.7 mm 2 mps 704 mmHg 71%
    16:00 +27°C° 0.5 mm 3 mps 704 mmHg 76%
    17:00 +25°C° 0.5 mm 3 mps 705 mmHg 81%
    18:00 +23°C° 0.5 mm 4 mps 705 mmHg 86%
    19:00 +22°C° 0 mm 4 mps 705 mmHg 87%
    20:00 +21°C° 0 mm 4 mps 705 mmHg 89%
    21:00 +19°C° 0 mm 4 mps 706 mmHg 90%
    22:00 +19°C° 0 mm 5 mps 705 mmHg 90%
    23:00 +17°C° 0 mm 5 mps 705 mmHg 91%

    20 October, Saturday

    Time Temperature Precipitation Wind Pressure Humidity
    00:00 +17°C° 0 mm 5 mps 705 mmHg 91%
    01:00 +16°C° 0 mm 5 mps 705 mmHg 91%
    02:00 +16°C° 0 mm 5 mps 704 mmHg 91%
    03:00 +16°C° 0 mm 5 mps 704 mmHg 92%
    04:00 +15°C° 0 mm 5 mps 704 mmHg 90%
    05:00 +15°C° 0 mm 5 mps 704 mmHg 89%
    06:00 +15°C° 0 mm 5 mps 705 mmHg 87%
    07:00 +16°C° 0 mm 5 mps 705 mmHg 83%
    08:00 +19°C° 0 mm 5 mps 705 mmHg 79%
    09:00 +20°C° 0 mm 5 mps 706 mmHg 75%
    10:00 +21°C° 0 mm 5 mps 706 mmHg 70%
    11:00 +23°C° 0 mm 4 mps 706 mmHg 66%
    12:00 +26°C° 0 mm 4 mps 706 mmHg 61%
    13:00 +26°C° 0 mm 4 mps 705 mmHg 60%
    14:00 +27°C° 0 mm 4 mps 705 mmHg 59%
    15:00 +27°C° 0 mm 4 mps 704 mmHg 57%
    16:00 +26°C° 0 mm 4 mps 704 mmHg 62%
    17:00 +25°C° 0 mm 4 mps 704 mmHg 67%
    18:00 +23°C° 0 mm 4 mps 704 mmHg 72%
    19:00 +21°C° 0 mm 4 mps 704 mmHg 74%
    20:00 +19°C° 0 mm 4 mps 704 mmHg 76%
    21:00 +17°C° 0 mm 5 mps 705 mmHg 78%
    22:00 +17°C° 0 mm 5 mps 704 mmHg 80%
    23:00 +16°C° 0 mm 5 mps 704 mmHg 82%
    Show more